This demonstration page uses our WeatherBlox Daily Observations layout. Learn more.

Left ArrowRight Arrow

Hourly Observations for May 12, 2018

Temp ( °F °C ) Dew Point ( °F °C ) Humidity (%) Winds ( mph kmh ) Pressure ( in mb ) Visibility ( mi km ) Precip ( " mm )
12:53 am 00:53 Clear 67 19.4 38 3.3 35 35 NNW 9 15 29.87 1012 10 16 0.00 0.00
1:53 am 01:53 Clear 66 18.9 39 3.9 37 37 NNW 8 13 29.87 1011 10 16 0.00 0.00
2:53 am 02:53 Clear 64 17.8 39 3.9 40 40 NNW 7 11 29.87 1012 10 16 0.00 0.00
3:53 am 03:53 Clear 63 17.2 39 3.9 41 41 N 6 9 29.87 1011 10 16 0.00 0.00
4:53 am 04:53 Clear 62 16.7 39 3.9 43 43 N 8 13 29.87 1012 10 16 0.00 0.00
5:53 am 05:53 Clear 60 15.6 40 4.4 47 47 N 3 6 29.87 1011 10 16 0.00 0.00
6:53 am 06:53 Sunny 59 15 42 5.6 54 54 Calm 29.87 1012 10 16 0.00 0.00
7:53 am 07:53 Sunny 63 17.2 46 7.8 54 54 E 5 7 29.87 1012 10 16 0.00 0.00
8:53 am 08:53 Sunny 71 21.7 42 5.6 35 35 N 8 13 29.86 1011 10 16 0.00 0.00
9:53 am 09:53 Sunny 74 23.3 41 5 31 31 N 10 17 29.84 1011 10 16 0.00 0.00
10:53 am 10:53 Sunny 77 25 41 5 28 28 NNE 12 19 29.83 1010 10 16 0.00 0.00
11:53 am 11:53 Sunny 78 25.6 40 4.4 26 26 NNE 7 11 29.82 1010 10 16 0.00 0.00
12:53 pm 12:53 Sunny 80 26.7 40 4.4 24 24 NNW 8 13 29.81 1009 10 16 0.00 0.03
1:53 pm 13:53 Partly Cloudy 81 27.2 39 3.9 22 22 NNW 10 17 29.80 1009 10 16 0.00 0.00
2:53 pm 14:53 Sunny 83 28.3 39 3.9 21 21 NNE 7 11 29.79 1009 10 16 0.00 0.00
3:53 pm 15:53 Sunny 84 28.9 39 3.9 20 20 N 10 17 29.77 1008 10 16 0.00 0.00
4:53 pm 16:53 Sunny 84 28.9 39 3.9 20 20 NE 8 13 29.76 1008 10 16 0.00 0.00
5:53 pm 17:53 Sunny 84 28.9 40 4.4 21 21 ENE 5 7 29.75 1008 10 16 0.00 0.00
6:53 pm 18:53 Sunny 83 28.3 39 3.9 21 21 Calm 29.75 1007 10 16 0.00 0.00
7:53 pm 19:53 Sunny 79 26.1 45 7.2 30 30 Calm 29.75 1008 10 16 0.00 0.00
8:53 pm 20:53 Clear 73 22.8 45 7.2 37 37 SW 5 7 29.76 1008 10 16 0.00 0.00
9:53 pm 21:53 Clear 70 21.1 46 7.8 42 42 Calm 29.78 1009 10 16 0.00 0.00
10:53 pm 22:53 Clear 66 18.9 49 9.4 54 54 N 3 6 29.80 1009 10 16 0.00 0.00
11:53 pm 23:53 Partly Cloudy 66 18.9 49 9.4 54 54 N 3 6 29.81 1010 10 16 0.00 0.00

Powered by AerisWeather